Regional Weather Roundup
Issued by NWS Goodland, KS

Home | Current Version | Previous Version | Graphics & Text | Print | Product List | Glossary On
Versions: 1 2 3 4 5 6 7 8 9 10 11 12 13 14 15 16 17 18 19 20 21 22 23 24 25 26 27 28 29 30 31 32 33 34 35 36 37 38 39 40 41 42 43 44 45 46 47 48 49 50
000
ASUS43 KGLD 010008
RWRGLD

GOODLAND FORECAST AREA HOURLY WEATHER ROUNDUP
NATIONAL WEATHER SERVICE GOODLAND KS
600 PM MDT TUE SEP 30 2014

...OFFICIAL OBSERVATIONS...

CITY           SKY/WX    TMP DP  RH WIND       PRES   REMARKS
GOODLAND KS    CLEAR     70  40  33 S3        29.77S
HILL CITY KS   CLEAR     77  55  46 SE3       29.69F
IMPERIAL NEB   PTCLDY    70  42  36 S8        29.74R
MCCOOK NEB     CLEAR     75  42  30 SE6       29.72S
AKRON CO       MOCLDY    65  38  36 SW3       29.80S
BURLINGTON CO  MOCLDY    68  40  35 SE6       29.78R
LIMON CO       CLOUDY    61  38  42 N8        29.84R
$$

...UNOFFICIAL OBSERVATIONS...

CITY           SKY/WX    TMP DP  RH WIND       PRES   REMARKS
COLBY KS       CLEAR     72  48  43 S5        29.75S
GOVE KS          N/A     75  32  20 MISG        N/A
NORTON KS      CLEAR     73  48  40 E3        29.70
SHARON SPRINGS   N/A     72  44  35 CALM        N/A
TRIBUNE KS     CLEAR     72  52  49 S7        29.78F
WAKEENEY KS      N/A     77  51  41 MISG        N/A
TRENTON NEB      N/A     72  32  23 CALM        N/A
KIT CARSON CO    N/A     65  46  51 MISG        N/A
YUMA CO          N/A     70  45  40 CALM        N/A
$$


USA.gov is the U.S. government's official web portal to all federal, state and local government web resources and services.